Simultaneous Nadir Overpasses (SNOs) Predictions

Prediction of SNOs between AURA and NPP Satellite Orbit:

Table of predicted SNOs for the next 14.0 days since TLE Epoch: 2/25/2017
Index Date (AURA) Time (AURA) Lat,Lon (AURA) SZA (AURA ) Date (NPP) Time (NPP) Lat,Lon (NPP) SZA (NPP ) Distance(km) Time Diff (sec)
1 02/25/2017 19:08:37 79.54, 150.08 101.55 02/25/2017 19:07:43 79.53, 150.06 101.59 0.40 54
2 02/25/2017 19:57:57 -79.80, -40.33 78.87 02/25/2017 19:58:20 -79.80, -40.29 78.89 0.83 23
3 02/28/2017 11:25:03 79.67, -93.10 100.34 02/28/2017 11:24:32 79.67, -92.97 100.34 2.78 31
4 02/28/2017 12:14:26 -79.82, 75.71 79.91 02/28/2017 12:15:13 -79.81, 75.60 79.93 2.27 47
5 03/03/2017 03:41:31 79.71, 23.15 99.24 03/03/2017 03:41:24 79.71, 23.17 99.24 0.42 7
6 03/03/2017
